Regional Weather Roundup
Issued by NWS

Home | Current Version | Previous Version | Graphics & Text | Print | Product List | Glossary On
Versions: 1 2 3 4 5 6 7 8 9 10 11 12 13 14 15 16 17 18 19 20 21 22 23 24 25 26 27 28 29 30 31 32 33 34 35 36 37 38 39 40 41 42 43 44 45 46 47 48 49 50
000
ASUS43 KTOP 242159
RWRKS

WEATHER ROUNDUP FOR KANSAS
NATIONAL WEATHER SERVICE GOODLAND KS
400 PM CST FRI NOV 24 2017

NOTE:  "FAIR" INDICATES FEW OR NO CLOUDS BELOW 12,000 FEET WITH NO
SIGNIFICANT WEATHER AND/OR OBSTRUCTIONS TO VISIBILITY.

KSZ001>006-013>018-027>032-041>047-242300-
NORTHWEST KANSAS

CITY           SKY/WX    TMP DP  RH WIND       PRES   REMARKS
GOODLAND       MOSUNNY   65  33  30 N14       29.80R
HAYS           MOSUNNY   70  38  31 N20G25    29.73R
HILL CITY      PTSUNNY   68  39  34 NE17      29.76R
RUSSELL        PTSUNNY   71  38  29 N20G28    29.71R
$$

KSZ061>065-074>080-084>089-242300-
SOUTHWEST KANSAS

CITY           SKY/WX    TMP DP  RH WIND       PRES   REMARKS
DODGE CITY     CLOUDY    72  37  28 SE8       29.72R
GARDEN CITY    CLOUDY    73  35  25 E16G23    29.73R
GREAT BEND     CLOUDY    77  38  24 N28G38    29.71R
LIBERAL        SUNNY     75  32  20 N7        29.70S
$$

KSZ066>073-081>083-090>101-242300-
SOUTHEAST KANSAS

CITY           SKY/WX    TMP DP  RH WIND       PRES   REMARKS
CHANUTE        CLOUDY    73  41  31 S12       29.66S
COFFEYVILLE    MOSUNNY   74  39  28 S10       29.68S
HUTCHINSON     SUNNY     82  35  18 N22G33    29.66R
MEDICINE LODGE   N/A     73  39  29 CALM      29.69R
NEWTON         CLOUDY    75  40  28 SW10      29.68R
PARSONS        CLOUDY    71  39  31 S7        29.68R
WICHITA INTL   CLOUDY    75  40  28 SW9       29.67R
WICHITA JABRA  CLOUDY    74  39  28 SW12      29.67R
WICHITA MCCONL MOSUNNY   75  37  24 SW10      29.67R
WINFIELD       MOSUNNY   78  41  26 SW12      29.67F
$$

KSZ007>012-019>026-033>040-048>060-102>105-242300-
NORTHEAST KANSAS

CITY           SKY/WX    TMP DP  RH WIND       PRES   REMARKS
CONCORDIA      MOSUNNY   67  39  35 N22G28    29.70R
EMPORIA        CLOUDY    77  39  25 SW9       29.63R
LAWRENCE       CLEAR     73  41  31 SW8       29.59R
MANHATTAN      MOSUNNY   76  39  26 N14G26    29.65R
OLATHE IND     CLEAR     71  40  32 SW15      29.61R
OLATHE EXE     PTCLDY    70  40  33 SW9       29.61R
SALINA         SUNNY     77  39  25 N24G32    29.68R
TOPEKA BILLARD CLOUDY    76  40  27 W8        29.60R
TOPEKA FORBES  CLOUDY    77  40  26 W10       29.61R
$$




USA.gov is the U.S. government's official web portal to all federal, state and local government web resources and services.